| time (UTC) | temp F | wind direction | speed MPH | gust MPH | rain 1hr in | rain 24hr in | rain mn in | humidity % | barometer mb |
| 20260504041212 | 58 | 219 | 6.0 | 0.0 | 0.00 | 0.00 | 0.00 | 69 | 1016.3 |
| 20260504040709 | 58 | 189 | 6.0 | 0.0 | 0.00 | 0.00 | 0.00 | 68 | 1016.6 |
| 20260504040210 | 59 | 109 | 5.0 | 0.0 | 0.00 | 0.00 | 0.00 | 68 | 1016.3 |
| 20260504035711 | 59 | 155 | 6.0 | 0.0 | 0.00 | 0.00 | 0.00 | 68 | 1016.3 |
| 20260504035213 | 59 | 141 | 7.0 | 0.0 | 0.00 | 0.00 | 0.00 | 67 | 1016.3 |
| 20260504034713 | 59 | 110 | 6.0 | 0.0 | 0.00 | 0.00 | 0.00 | 66 | 1015.9 |
| 20260504034212 | 60 | 152 | 4.0 | 0.0 | 0.00 | 0.00 | 0.00 | 65 | 1015.9 |
| 20260504033714 | 60 | 114 | 6.0 | 0.0 | 0.00 | 0.00 | 0.00 | 64 | 1015.9 |
| 20260504033213 | 60 | 55 | 6.0 | 0.0 | 0.00 | 0.00 | 0.00 | 63 | 1015.9 |
| 20260504032710 | 60 | 94 | 3.0 | 0.0 | 0.00 | 0.00 | 0.00 | 63 | 1015.6 |
| 20260504032210 | 60 | 118 | 11.0 | 0.0 | 0.00 | 0.00 | 0.00 | 62 | 1015.6 |
| 20260504031713 | 60 | 145 | 11.0 | 0.0 | 0.00 | 0.00 | 0.00 | 62 | 1015.2 |
| 20260504031210 | 60 | 31 | 17.0 | 0.0 | 0.00 | 0.00 | 0.00 | 62 | 1015.2 |
| 20260504030714 | 60 | 125 | 17.0 | 0.0 | 0.00 | 0.00 | 0.00 | 62 | 1015.2 |
| 20260504030212 | 60 | 101 | 8.0 | 0.0 | 0.00 | 0.00 | 0.00 | 62 | 1015.2 |
| 20260504025711 | 60 | 296 | 10.0 | 0.0 | 0.00 | 0.00 | 0.00 | 62 | 1014.9 |
| 20260504025211 | 60 | 111 | 10.0 | 0.0 | 0.00 | 0.00 | 0.00 | 62 | 1014.9 |
| 20260504024710 | 60 | 309 | 12.0 | 0.0 | 0.00 | 0.00 | 0.00 | 62 | 1014.9 |
| 20260504024213 | 60 | 198 | 10.0 | 0.0 | 0.00 | 0.00 | 0.00 | 62 | 1014.9 |
| 20260504023710 | 61 | 340 | 11.0 | 0.0 | 0.00 | 0.00 | 0.00 | 62 | 1014.9 |
| 20260504023214 | 61 | 148 | 10.0 | 0.0 | 0.00 | 0.00 | 0.00 | 61 | 1014.9 |
| 20260504022713 | 61 | 87 | 16.0 | 0.0 | 0.00 | 0.00 | 0.00 | 61 | 1014.9 |
| 20260504022214 | 61 | 97 | 16.0 | 0.0 | 0.00 | 0.00 | 0.00 | 60 | 1014.6 |
| 20260504021711 | 62 | 104 | 9.0 | 0.0 | 0.00 | 0.00 | 0.00 | 60 | 1014.6 |
| 20260504021212 | 62 | 71 | 11.0 | 0.0 | 0.00 | 0.00 | 0.00 | 59 | 1014.2 |
| 20260504020711 | 63 | 94 | 11.0 | 0.0 | 0.00 | 0.00 | 0.00 | 59 | 1014.2 |
| 20260504020213 | 63 | 307 | 11.0 | 0.0 | 0.00 | 0.00 | 0.00 | 58 | 1014.2 |
| 20260504015726 | 63 | 101 | 10.0 | 0.0 | 0.00 | 0.00 | 0.00 | 58 | 1013.9 |
| 20260504015216 | 64 | 89 | 8.0 | 0.0 | 0.00 | 0.00 | 0.00 | 57 | 1013.9 |
| 20260504014716 | 64 | 168 | 10.0 | 0.0 | 0.00 | 0.00 | 0.00 | 57 | 1013.5 |
| 20260504014216 | 64 | 125 | 15.0 | 0.0 | 0.00 | 0.00 | 0.00 | 57 | 1013.5 |
| 20260504013718 | 65 | 168 | 11.0 | 0.0 | 0.00 | 0.00 | 0.00 | 56 | 1013.9 |
| 20260504013216 | 65 | 106 | 12.0 | 0.0 | 0.00 | 0.00 | 0.00 | 56 | 1013.5 |
| 20260504012642 | 65 | 117 | 17.0 | 0.0 | 0.00 | 0.00 | 0.00 | 56 | 1013.5 |
| 20260504012218 | 66 | 130 | 17.0 | 0.0 | 0.00 | 0.00 | 0.00 | 55 | 1013.5 |
| 20260504011717 | 66 | 114 | 13.0 | 0.0 | 0.00 | 0.00 | 0.00 | 54 | 1013.5 |
| 20260504011215 | 67 | 22 | 11.0 | 0.0 | 0.00 | 0.00 | 0.00 | 53 | 1013.5 |
| 20260504010716 | 67 | 137 | 10.0 | 0.0 | 0.00 | 0.00 | 0.00 | 53 | 1013.5 |
| 20260504010216 | 67 | 132 | 15.0 | 0.0 | 0.00 | 0.00 | 0.00 | 53 | 1013.5 |
| 20260504005718 | 68 | 133 | 13.0 | 0.0 | 0.00 | 0.00 | 0.00 | 52 | 1013.2 |
| 20260504005215 | 68 | 111 | 11.0 | 0.0 | 0.00 | 0.00 | 0.00 | 51 | 1013.2 |
| 20260504004717 | 68 | 141 | 14.0 | 0.0 | 0.00 | 0.00 | 0.00 | 51 | 1013.2 |
| 20260504004215 | 68 | 121 | 11.0 | 0.0 | 0.00 | 0.00 | 0.00 | 51 | 1013.2 |
| 20260504003638 | 69 | 139 | 10.0 | 0.0 | 0.00 | 0.00 | 0.00 | 51 | 1013.2 |
| 20260504003216 | 69 | 88 | 8.0 | 0.0 | 0.00 | 0.00 | 0.00 | 51 | 1013.2 |
| 20260504002716 | 69 | 90 | 10.0 | 0.0 | 0.00 | 0.00 | 0.00 | 51 | 1013.2 |
| 20260504002216 | 69 | 170 | 11.0 | 0.0 | 0.00 | 0.00 | 0.00 | 51 | 1013.2 |
| 20260504001716 | 69 | 101 | 10.0 | 0.0 | 0.00 | 0.00 | 0.00 | 50 | 1013.2 |
| 20260504001217 | 69 | 149 | 9.0 | 0.0 | 0.00 | 0.00 | 0.00 | 51 | 1013.2 |
| 20260504000715 | 70 | 60 | 11.0 | 0.0 | 0.00 | 0.00 | 0.00 | 50 | 1013.2 |
| 20260504000213 | 70 | 116 | 9.0 | 0.0 | 0.00 | 0.00 | 0.00 | 50 | 1013.2 |
| 20260503235714 | 70 | 210 | 9.0 | 0.0 | 0.00 | 0.00 | 0.00 | 50 | 1013.2 |
| 20260503235214 | 70 | 138 | 10.0 | 0.0 | 0.00 | 0.00 | 0.00 | 50 | 1013.2 |
| 20260503234714 | 71 | 107 | 10.0 | 0.0 | 0.00 | 0.00 | 0.00 | 50 | 1013.2 |
| 20260503234212 | 71 | 148 | 8.0 | 0.0 | 0.00 | 0.00 | 0.00 | 49 | 1013.2 |
| 20260503233713 | 71 | 148 | 10.0 | 0.0 | 0.00 | 0.00 | 0.00 | 49 | 1013.2 |
| 20260503233214 | 71 | 124 | 13.0 | 0.0 | 0.00 | 0.00 | 0.00 | 50 | 1013.2 |
| 20260503232714 | 71 | 151 | 13.0 | 0.0 | 0.00 | 0.00 | 0.00 | 50 | 1013.2 |
| 20260503232216 | 71 | 122 | 13.0 | 0.0 | 0.00 | 0.00 | 0.00 | 50 | 1013.2 |
| 20260503231714 | 71 | 122 | 10.0 | 0.0 | 0.00 | 0.00 | 0.00 | 50 | 1013.5 |
| 20260503231213 | 71 | 109 | 11.0 | 0.0 | 0.00 | 0.00 | 0.00 | 50 | 1013.2 |
| 20260503230714 | 71 | 99 | 13.0 | 0.0 | 0.00 | 0.00 | 0.00 | 50 | 1013.5 |
| 20260503230213 | 71 | 119 | 10.0 | 0.0 | 0.00 | 0.00 | 0.00 | 50 | 1013.5 |
| 20260503225714 | 72 | 137 | 9.0 | 0.0 | 0.00 | 0.00 | 0.00 | 49 | 1013.5 |
| 20260503225215 | 72 | 179 | 9.0 | 0.0 | 0.00 | 0.00 | 0.00 | 49 | 1013.5 |
| 20260503224711 | 71 | 116 | 12.0 | 0.0 | 0.00 | 0.00 | 0.00 | 50 | 1013.9 |
| 20260503224212 | 71 | 102 | 12.0 | 0.0 | 0.00 | 0.00 | 0.00 | 50 | 1013.9 |
| 20260503223713 | 71 | 192 | 13.0 | 0.0 | 0.00 | 0.00 | 0.00 | 52 | 1013.9 |
| 20260503223211 | 71 | 140 | 13.0 | 0.0 | 0.00 | 0.00 | 0.00 | 51 | 1013.9 |
| 20260503222714 | 71 | 115 | 10.0 | 0.0 | 0.00 | 0.00 | 0.00 | 51 | 1013.9 |
| 20260503222214 | 71 | 203 | 9.0 | 0.0 | 0.00 | 0.00 | 0.00 | 51 | 1014.2 |
| 20260503221713 | 71 | 147 | 16.0 | 0.0 | 0.00 | 0.00 | 0.00 | 52 | 1014.2 |
| 20260503221212 | 70 | 125 | 14.0 | 0.0 | 0.00 | 0.00 | 0.00 | 52 | 1014.2 |
| 20260503220713 | 70 | 119 | 14.0 | 0.0 | 0.00 | 0.00 | 0.00 | 52 | 1014.2 |
| 20260503220213 | 71 | 66 | 12.0 | 0.0 | 0.00 | 0.00 | 0.00 | 52 | 1014.2 |
| 20260503215713 | 70 | 114 | 11.0 | 0.0 | 0.00 | 0.00 | 0.00 | 53 | 1014.2 |
| 20260503215214 | 70 | 34 | 15.0 | 0.0 | 0.00 | 0.00 | 0.00 | 53 | 1014.6 |
| 20260503214712 | 71 | 136 | 11.0 | 0.0 | 0.00 | 0.00 | 0.00 | 52 | 1014.6 |
| 20260503214212 | 70 | 173 | 11.0 | 0.0 | 0.00 | 0.00 | 0.00 | 55 | 1014.6 |
| 20260503213714 | 70 | 122 | 11.0 | 0.0 | 0.00 | 0.00 | 0.00 | 53 | 1014.6 |
| 20260503213214 | 70 | 127 | 11.0 | 0.0 | 0.00 | 0.00 | 0.00 | 55 | 1014.6 |
| 20260503212713 | 70 | 143 | 11.0 | 0.0 | 0.00 | 0.00 | 0.00 | 54 | 1014.6 |
| 20260503212215 | 71 | 137 | 10.0 | 0.0 | 0.00 | 0.00 | 0.00 | 54 | 1014.6 |
| 20260503211715 | 69 | 179 | 11.0 | 0.0 | 0.00 | 0.00 | 0.00 | 58 | 1014.9 |
| 20260503211211 | 69 | 122 | 10.0 | 0.0 | 0.00 | 0.00 | 0.00 | 58 | 1014.9 |
| 20260503210712 | 69 | 211 | 8.0 | 0.0 | 0.00 | 0.00 | 0.00 | 58 | 1014.9 |
| 20260503210137 | 68 | 121 | 10.0 | 0.0 | 0.00 | 0.00 | 0.00 | 59 | 1014.9 |
| 20260503205710 | 68 | 163 | 12.0 | 0.0 | 0.00 | 0.00 | 0.00 | 59 | 1014.9 |
| 20260503205211 | 68 | 176 | 9.0 | 0.0 | 0.00 | 0.00 | 0.00 | 58 | 1014.9 |
| 20260503204711 | 68 | 135 | 10.0 | 0.0 | 0.00 | 0.00 | 0.00 | 58 | 1014.9 |
| 20260503204141 | 68 | 126 | 10.0 | 0.0 | 0.00 | 0.00 | 0.00 | 59 | 1014.9 |
| 20260503203713 | 68 | 14 | 10.0 | 0.0 | 0.00 | 0.00 | 0.00 | 61 | 1014.9 |
| 20260503203212 | 67 | 161 | 10.0 | 0.0 | 0.00 | 0.00 | 0.00 | 61 | 1015.2 |
| 20260503202714 | 66 | 147 | 10.0 | 0.0 | 0.00 | 0.00 | 0.00 | 63 | 1014.9 |
| 20260503202213 | 66 | 137 | 10.0 | 0.0 | 0.00 | 0.00 | 0.00 | 63 | 1015.2 |
| 20260503201714 | 66 | 152 | 9.0 | 0.0 | 0.00 | 0.00 | 0.00 | 63 | 1015.2 |
| 20260503201214 | 66 | 107 | 10.0 | 0.0 | 0.00 | 0.00 | 0.00 | 64 | 1015.2 |
| 20260503200639 | 66 | 32 | 9.0 | 0.0 | 0.00 | 0.00 | 0.00 | 63 | 1015.2 |
| 20260503200213 | 66 | 120 | 10.0 | 0.0 | 0.00 | 0.00 | 0.00 | 63 | 1015.2 |
| 20260503195715 | 66 | 99 | 10.0 | 0.0 | 0.00 | 0.00 | 0.00 | 63 | 1015.2 |
| 20260503195140 | 66 | 129 | 10.0 | 0.0 | 0.00 | 0.00 | 0.00 | 65 | 1015.2 |
| 20260503194712 | 65 | 135 | 10.0 | 0.0 | 0.00 | 0.00 | 0.00 | 66 | 1015.2 |
| 20260503194214 | 65 | 333 | 9.0 | 0.0 | 0.00 | 0.00 | 0.00 | 65 | 1015.6 |
| 20260503193715 | 65 | 151 | 8.0 | 0.0 | 0.00 | 0.00 | 0.00 | 66 | 1015.6 |
| 20260503193209 | 64 | 111 | 9.0 | 0.0 | 0.00 | 0.00 | 0.00 | 67 | 1015.6 |
| 20260503192713 | 65 | 85 | 8.0 | 0.0 | 0.00 | 0.00 | 0.00 | 67 | 1015.6 |
| 20260503192212 | 64 | 154 | 8.0 | 0.0 | 0.00 | 0.00 | 0.00 | 68 | 1015.6 |
| 20260503191712 | 64 | 83 | 8.0 | 0.0 | 0.00 | 0.00 | 0.00 | 68 | 1015.6 |
| 20260503191138 | 64 | 132 | 9.0 | 0.0 | 0.00 | 0.00 | 0.00 | 68 | 1015.9 |
| 20260503190713 | 63 | 113 | 8.0 | 0.0 | 0.00 | 0.00 | 0.00 | 68 | 1015.9 |
| 20260503190210 | 63 | 148 | 8.0 | 0.0 | 0.00 | 0.00 | 0.00 | 70 | 1015.9 |
| 20260503185711 | 63 | 89 | 6.0 | 0.0 | 0.00 | 0.00 | 0.00 | 71 | 1015.9 |
| 20260503185213 | 63 | 334 | 6.0 | 0.0 | 0.00 | 0.00 | 0.00 | 71 | 1016.3 |
| 20260503184711 | 62 | 43 | 9.0 | 0.0 | 0.00 | 0.00 | 0.00 | 72 | 1016.3 |
| 20260503184212 | 62 | 121 | 9.0 | 0.0 | 0.00 | 0.00 | 0.00 | 73 | 1016.3 |
| 20260503183710 | 62 | 199 | 9.0 | 0.0 | 0.00 | 0.00 | 0.00 | 74 | 1016.3 |
| 20260503183237 | 62 | 182 | 8.0 | 0.0 | 0.00 | 0.00 | 0.00 | 73 | 1016.3 |
| 20260503182912 | 62 | 75 | 8.0 | 0.0 | 0.00 | 0.00 | 0.00 | 74 | 1016.3 |
| 20260503182212 | 62 | 119 | 7.0 | 0.0 | 0.00 | 0.00 | 0.00 | 74 | 1016.3 |
| 20260503181644 | 62 | 116 | 6.0 | 0.0 | 0.00 | 0.00 | 0.00 | 74 | 1016.3 |
| 20260503181209 | 62 | 114 | 9.0 | 0.0 | 0.00 | 0.00 | 0.00 | 74 | 1016.3 |
| 20260503180711 | 62 | 200 | 6.0 | 0.0 | 0.00 | 0.00 | 0.00 | 74 | 1016.3 |
| 20260503180211 | 62 | 120 | 6.0 | 0.0 | 0.00 | 0.00 | 0.00 | 74 | 1016.3 |
| 20260503175712 | 62 | 133 | 8.0 | 0.0 | 0.00 | 0.00 | 0.00 | 74 | 1016.3 |
| 20260503175211 | 62 | 78 | 9.0 | 0.0 | 0.00 | 0.00 | 0.00 | 75 | 1016.3 |
| 20260503174710 | 62 | 105 | 7.0 | 0.0 | 0.00 | 0.00 | 0.00 | 73 | 1016.3 |
| 20260503174214 | 62 | 147 | 9.0 | 0.0 | 0.00 | 0.00 | 0.00 | 74 | 1015.9 |
| 20260503173640 | 62 | 117 | 9.0 | 0.0 | 0.00 | 0.00 | 0.00 | 74 | 1016.3 |
| 20260503173211 | 62 | 158 | 10.0 | 0.0 | 0.00 | 0.00 | 0.00 | 74 | 1015.9 |
| 20260503172712 | 62 | 96 | 10.0 | 0.0 | 0.00 | 0.00 | 0.00 | 74 | 1015.9 |
| 20260503172210 | 62 | 160 | 8.0 | 0.0 | 0.00 | 0.00 | 0.00 | 74 | 1015.9 |
| 20260503171713 | 62 | 141 | 9.0 | 0.0 | 0.00 | 0.00 | 0.00 | 75 | 1015.6 |
| 20260503171216 | 62 | 147 | 11.0 | 0.0 | 0.00 | 0.00 | 0.00 | 75 | 1015.6 |
| 20260503170710 | 62 | 130 | 10.0 | 0.0 | 0.00 | 0.00 | 0.00 | 75 | 1015.9 |
| 20260503170211 | 62 | 118 | 8.0 | 0.0 | 0.00 | 0.00 | 0.00 | 76 | 1015.6 |
| 20260503160211 | 59 | 54 | 7.0 | 0.0 | 0.00 | 0.00 | 0.00 | 85 | 1015.6 |
| 20260503150636 | 58 | 306 | 8.0 | 0.0 | 0.00 | 0.00 | 0.00 | 88 | 1015.2 |
| 20260503150142 | 58 | 352 | 6.0 | 0.0 | 0.00 | 0.00 | 0.00 | 89 | 1015.2 |
| 20260503140138 | 57 | 308 | 4.0 | 0.0 | 0.00 | 0.00 | 0.00 | 91 | 1015.2 |
| 20260503131208 | 57 | 312 | 3.0 | 0.0 | 0.00 | 0.00 | 0.00 | 92 | 1014.6 |
| 20260503130654 | 57 | 65 | 2.0 | 0.0 | 0.00 | 0.00 | 0.00 | 92 | 1014.2 |
| 20260503130152 | 57 | 264 | 0.0 | 0.0 | 0.00 | 0.00 | 0.00 | 92 | 1014.2 |
| 20260503120150 | 57 | 141 | 6.0 | 0.0 | 0.00 | 0.00 | 0.00 | 92 | 1014.2 |
| 20260503110654 | 57 | 120 | 4.0 | 0.0 | 0.00 | 0.00 | 0.00 | 92 | 1013.9 |
| 20260503110146 | 57 | 99 | 5.0 | 0.0 | 0.00 | 0.00 | 0.00 | 92 | 1013.9 |
| 20260503100151 | 57 | 130 | 0.0 | 0.0 | 0.00 | 0.00 | 0.00 | 92 | 1014.6 |
| 20260503090154 | 58 | 133 | 7.0 | 0.0 | 0.00 | 0.00 | 0.00 | 90 | 1014.6 |
| 20260503081149 | 59 | 222 | 8.0 | 0.0 | 0.00 | 0.00 | 0.00 | 85 | 1014.6 |
| 20260503080651 | 59 | 121 | 8.0 | 0.0 | 0.00 | 0.00 | 0.00 | 84 | 1014.6 |
| 20260503080155 | 59 | 269 | 7.0 | 0.0 | 0.00 | 0.00 | 0.00 | 83 | 1014.6 |
| 20260503072648 | 61 | 285 | 0.0 | 0.0 | 0.00 | 0.00 | 0.00 | 78 | 1014.6 |
| 20260503072151 | 62 | 264 | 0.0 | 0.0 | 0.00 | 0.00 | 0.00 | 78 | 1014.6 |
| 20260503071650 | 61 | 210 | 0.0 | 0.0 | 0.00 | 0.00 | 0.00 | 79 | 1014.6 |
| 20260503071156 | 61 | 282 | 0.0 | 0.0 | 0.00 | 0.00 | 0.00 | 79 | 1014.2 |
| 20260503070649 | 61 | 316 | 0.0 | 0.0 | 0.00 | 0.00 | 0.00 | 79 | 1014.6 |
| 20260503070153 | 61 | 250 | 0.0 | 0.0 | 0.00 | 0.00 | 0.00 | 78 | 1014.6 |
| 20260503060149 | 65 | 211 | 6.0 | 0.0 | 0.00 | 0.00 | 0.00 | 69 | 1014.2 |
| 20260503054655 | 66 | 320 | 4.0 | 0.0 | 0.00 | 0.00 | 0.00 | 68 | 1014.2 |
| 20260503054155 | 67 | 259 | 3.0 | 0.0 | 0.00 | 0.00 | 0.00 | 68 | 1014.2 |
| 20260503053652 | 67 | 249 | 4.0 | 0.0 | 0.00 | 0.00 | 0.00 | 68 | 1013.9 |
| 20260503053150 | 67 | 283 | 6.0 | 0.0 | 0.00 | 0.00 | 0.00 | 67 | 1013.9 |
| 20260503052651 | 67 | 283 | 4.0 | 0.0 | 0.00 | 0.00 | 0.00 | 67 | 1013.9 |
| 20260503052149 | 67 | 229 | 4.0 | 0.0 | 0.00 | 0.00 | 0.00 | 67 | 1013.9 |
| 20260503051653 | 67 | 135 | 0.0 | 0.0 | 0.00 | 0.00 | 0.00 | 67 | 1013.9 |
| 20260503051151 | 67 | 74 | 1.0 | 0.0 | 0.00 | 0.00 | 0.00 | 66 | 1013.9 |
| 20260503050649 | 67 | 323 | 2.0 | 0.0 | 0.00 | 0.00 | 0.00 | 66 | 1013.9 |
| 20260503050250 | 67 | 137 | 2.0 | 0.0 | 0.00 | 0.00 | 0.00 | 66 | 1013.9 |
| 20260503045923 | 67 | 287 | 0.0 | 0.0 | 0.00 | 0.00 | 0.00 | 65 | 1013.5 |
| 20260503045157 | 67 | 292 | 3.0 | 0.0 | 0.00 | 0.00 | 0.00 | 65 | 1013.5 |
| 20260503044647 | 67 | 323 | 3.0 | 0.0 | 0.00 | 0.00 | 0.00 | 65 | 1013.5 |
| 20260503044151 | 67 | 276 | 3.0 | 0.0 | 0.00 | 0.00 | 0.00 | 65 | 1013.5 |
| 20260503043653 | 67 | 273 | 2.0 | 0.0 | 0.00 | 0.00 | 0.00 | 63 | 1013.5 |
| 20260503043148 | 68 | 206 | 2.0 | 0.0 | 0.00 | 0.00 | 0.00 | 63 | 1013.2 |
| 20260503042650 | 68 | 221 | 2.0 | 0.0 | 0.00 | 0.00 | 0.00 | 62 | 1013.2 |
| 20260503042152 | 68 | 274 | 0.0 | 0.0 | 0.00 | 0.00 | 0.00 | 60 | 1013.2 |
| 20260503041655 | 69 | 260 | 2.0 | 0.0 | 0.00 | 0.00 | 0.00 | 59 | 1013.2 |